Location: CCZU
(31.6840°N, 119.9550°E)
Time: 13:39:14
(UTC+08:00)

Hubble Space Telescope - Visible Passes

Search period start: 06 June 2026 00:00
Search period end: 16 June 2026 00:00
Orbit: 473 x 475 km, 28.5° (Epoch: 5 June)

Date Brightness Start Highest point End Pass type
(mag) Time Alt. Az. Time Alt. Az. Time Alt. Az.
6 Jun 2.4 20:34:51 10° SSW 20:36:10 17° SSW 20:36:10 17° SSW visible
7 Jun 1.8 20:03:08 10° SSW 20:06:04 22° SSE 20:07:03 20° SE visible
8 Jun 1.9 19:31:25 10° SSW 19:34:19 21° SSE 19:37:14 10° ESE visible
8 Jun 2.3 21:10:07 10° WSW 21:11:44 23° SW 21:11:44 23° SW visible
9 Jun 0.8 20:38:23 10° WSW 20:41:57 45° S 20:42:09 44° SSE visible
10 Jun 0.9 20:06:37 10° WSW 20:10:12 45° S 20:12:23 21° ESE visible
10 Jun 3.3 21:46:07 10° W 21:46:24 12° W 21:46:24 12° W visible
11 Jun 0.9 19:34:51 10° WSW 19:38:26 45° S 19:42:01 10° E visible
11 Jun 1.9 21:14:20 10° W 21:16:29 30° WSW 21:16:29 30° WSW visible
12 Jun 0.7 20:42:33 10° W 20:46:10 48° S 20:46:28 47° SSE visible
13 Jun 0.8 20:10:47 10° W 20:14:23 49° S 20:16:22 23° ESE visible
14 Jun 0.9 19:38:58 10° W 19:42:35 49° S 19:46:12 10° ESE visible
14 Jun 2.6 21:18:51 10° WSW 21:20:13 18° WSW 21:20:13 18° WSW visible
15 Jun 1.8 20:47:02 10° WSW 20:50:02 26° SSW 20:50:02 26° SSW visible
